Flag for Chile Weather past 2 weeks in Viña del Mar, Chile

Now
48 °F

Passing clouds.


Feels Like: 47 °F
Forecast: 53 / 62 °F
Wind: 3 mph from Northwest

Location: Pudahuel

Current Time: Aug 30, 2014 at 4:59:23 AM

Latest Report: Aug 30, 2014 at 4:00 AM


Visibility: N/A

Pressure: 30.04 "Hg

Humidity: 82%

Dew point: 43 °F

Location of Viña del MarLocation

Historic Weather in Viña del Mar — Graph

°F

Viña del Mar temperature yesterday

Maximum temperature yesterday: 72 °F (at 3:00 PM)
Minimum temperature yesterday: 43 °F (at 7:00 AM)
Average temperature yesterday: 54 °F

Past Weeks' High & Low Weather Summary

 TemperatureHumidityPressure
High84 °F (Aug 17, 3:00 PM)100% (Aug 15, 4:00 AM)30.27 "Hg (Aug 15, 4:00 AM)
Low32 °F (Aug 25, 6:00 AM)15% (Aug 26, 2:00 PM)29.83 "Hg (Aug 18, 4:00 PM)
Average52 °F70%30.03 "Hg
* Reported Aug 15 4:00 AM — Aug 30 4:00 AM, Viña del Mar, Weather by CustomWeather, © 2014

Note: Actual official high and low records may vary slightly from our data, if they occured in-between our weather recording intervals... More about our weather records

Advertising

Viña del Mar weather history for previous 24 hours

 ConditionsComfort  
Time TempWeatherWind HumidityBarometerVisibility
4:00 AM
Aug 30
48 °FPassing clouds.3 mph82%30.04 "HgN/A
3:00 AM48 °FPassing clouds.6 mph82%30.07 "HgN/A
2:00 AM50 °FOvercast.3 mph76%30.07 "HgN/A
1:00 AM48 °FOvercast.7 mph82%30.07 "HgN/A
12:00 AM48 °FPassing clouds.10 mph76%30.01 "HgN/A
11:00 PM
Aug 29
48 °FOvercast.13 mph76%29.98 "HgN/A
10:00 PM50 °FPassing clouds.14 mph76%29.95 "HgN/A
9:00 PM54 °FPassing clouds.12 mph67%29.92 "HgN/A
8:00 PM55 °FPassing clouds.10 mph67%29.92 "HgN/A
7:00 PM61 °FPassing clouds.10 mph55%29.89 "HgN/A
6:00 PM64 °FClear.9 mph52%29.86 "Hg10 mi
5:00 PM66 °FSunny.14 mph49%29.86 "Hg10 mi
3:00 PM72 °FScattered clouds.12 mph23%29.86 "Hg5 mi
2:00 PM68 °FClear.6 mph38%29.86 "Hg5 mi
1:00 PM64 °FClear.5 mph46%29.89 "Hg5 mi
12:00 PM59 °FScattered clouds.2 mph63%29.92 "Hg4 mi
11:00 AM55 °FBroken clouds.3 mph72%29.92 "Hg3 mi
10:00 AM50 °FHaze.1 mph82%29.95 "Hg2 mi
9:00 AM46 °FHaze.2 mph87%29.98 "Hg1 mi
8:00 AM45 °FSleet. Cloudy.5 mph87%29.95 "Hg1 mi
7:00 AM43 °FFog.5 mph93%29.95 "Hg2 mi
6:00 AM45 °FClear.2 mph87%29.95 "Hg4 mi
5:00 AM46 °FClear.5 mph87%29.95 "Hg5 mi
4:00 AM48 °FClear.6 mph82%29.95 "Hg10 mi
Weather by CustomWeather, © 2014

See weather overviewHow to use our weather pages